#timestamp,LO_Frequency,Hit,StdDev 
1580439615.8,286046994.7,N
1580439635.6,286046993.7,N
1580439655.4,286046993.8,N
1580439675.3,286046997.8,N
1580439695.1,286046998.4,N
1580439715.8,286046997.3,N
1580439735.7,286046996.7,N
1580439755.5,286046997.7,N
1580439775.4,286046993.7,N
1580439795.2,286046994.2,N
1580439815.0,286046994.8,N
1580439815.9,286046994.8,N
1580439835.8,286046992.4,Y
1580439855.6,286046997.2,P
1580439875.5,286046997.3,P
1580439895.3,286047001.0,N
1580439915.1,286046999.3,N
1580439935.9,286046996.5,N
1580439955.7,286047002.7,N
1580439975.6,286046999.8,N
1580439995.4,286047006.0,N
1580440015.2,286047007.1,N
1580440035.1,286047003.9,N
1580440036.0,286047003.9,N
1580440055.8,286047001.6,N
1580440075.6,286046999.7,N
1580440095.5,286046998.2,N
1580440115.3,286046998.7,N
1580440135.2,286046997.0,N
1580440155.9,286046996.9,N
1580440175.7,286046998.5,N
1580440195.6,286047001.2,N
1580440215.4,286047000.7,N
1580440235.2,286046999.3,N
1580440255.1,286047000.7,N
1580440256.0,286047000.7,N
1580440275.8,286047000.8,N
1580440295.7,286046999.8,N
1580440315.5,286047003.1,N
1580440335.3,286047003.5,N
1580440355.2,286047003.1,N
1580440375.0,286047005.9,N
1580440375.9,286047005.9,N
1580440395.7,286047003.8,N
1580440415.6,286047004.8,N
1580440435.4,286047005.0,N
1580440455.3,286047003.6,N
1580440475.1,286047002.1,N
1580440476.0,286047002.1,N
1580440495.8,286047002.6,N
1580440515.7,286047001.4,N
1580440535.5,286047002.2,N
1580440555.3,286047002.7,N
1580440575.2,286047002.7,N
1580440595.0,286047001.3,N
1580440595.9,286047001.3,N
1580440615.8,286047000.1,N
1580440635.6,286047003.2,N
1580440655.4,286047005.9,N
1580440675.3,286047003.8,N
1580440695.1,286047002.3,N
1580440715.9,286047002.2,N
1580440735.7,286046999.8,N
1580440755.5,286047001.3,N
1580440775.4,286047004.4,N
1580440795.2,286047001.8,N
1580440815.0,286047003.9,N
1580440815.9,286047003.9,N
1580440835.8,286047002.1,N
1580440855.6,286047004.2,N
1580440875.5,286047000.2,N
1580440895.3,286047004.2,N
1580440915.1,286047005.1,Y
1580440935.9,286047002.2,P
1580440955.7,286047011.9,P
1580440975.5,286046998.5,N
1580440995.4,286047002.3,N
1580441015.2,286047002.8,N
1580441035.1,286046998.7,N
1580441036.0,286046998.7,N
1580441055.8,286046998.1,N
1580441075.6,286047000.5,N
1580441095.5,286047001.0,N
1580441115.3,286047002.6,N
1580441135.1,286047002.5,N
1580441155.9,286047001.9,N
1580441175.7,286047002.7,N
1580441195.6,286047001.2,N
1580441215.4,286046999.0,N
1580441235.2,286046996.6,N
1580441255.1,286046996.9,N
1580441256.0,286046996.9,N
1580441275.8,286046996.5,N
1580441295.6,286047001.1,N
1580441315.5,286047001.9,N
1580441335.3,286047001.6,N
1580441355.2,286047000.0,N
1580441375.9,286046999.9,N
1580441395.7,286047001.8,N
1580441415.6,286047000.7,N
1580441435.4,286046998.1,N
1580441455.2,286046998.3,N
1580441475.1,286047000.8,N
1580441476.0,286047000.8,N
1580441495.8,286046999.9,N
1580441515.7,286047000.4,N
1580441535.5,286047000.3,N
1580441555.3,286047000.8,N
1580441575.2,286046998.2,N
1580441595.0,286046996.5,N
1580441595.9,286046996.5,N
1580441615.8,286046999.2,N
1580441635.6,286046999.5,N
1580441655.4,286046999.3,N
1580441675.3,286046999.2,N
1580441695.1,286046996.7,N
1580441715.8,286046998.2,N
1580441735.7,286047000.7,N
1580441755.5,286047001.2,N
1580441775.4,286046998.1,N
1580441795.2,286047002.6,N
1580441815.0,286047002.6,N
1580441815.9,286047002.6,N
1580441835.8,286047000.6,N
1580441855.6,286047000.5,N
1580441875.4,286047000.2,N
1580441895.3,286047000.7,N
1580441915.1,286047003.7,N
1580441935.9,286047002.0,N
1580441955.7,286047001.6,N
1580441975.5,286046998.6,N
1580441995.4,286047000.9,N
1580442015.2,286046998.4,N
1580442035.0,286046999.1,N
1580442036.0,286046999.1,N
1580442055.8,286046998.2,N
1580442075.6,286046998.9,N
1580442095.5,286047000.7,N
1580442115.3,286047001.1,N
1580442135.1,286047000.9,N
1580442155.9,286046996.5,N
1580442175.7,286046997.5,N
1580442195.6,286046996.9,N
1580442215.4,286046999.5,N
1580442235.2,286047001.2,N
1580442255.1,286046999.2,N
1580442256.0,286046999.2,N
1580442275.8,286047000.7,N
1580442295.6,286047002.5,N
1580442315.5,286047000.9,N
1580442335.3,286047000.9,N
1580442355.2,286047000.3,N
1580442375.0,286046998.4,N
1580442375.9,286046998.4,N
1580442395.7,286046999.0,N
1580442415.6,286046998.4,N
1580442435.4,286046998.4,N
1580442455.3,286046999.4,N
1580442475.1,286046999.4,N
1580442476.0,286046999.4,N
1580442495.8,286046998.5,N
1580442515.7,286047000.1,N
1580442535.5,286047002.8,N
1580442555.4,286047000.0,N
1580442575.2,286047004.3,N
1580442595.0,286047002.6,N
1580442595.9,286047002.6,N
1580442615.8,286047000.2,N
1580442635.6,286047002.2,N
1580442655.4,286047002.2,N
1580442675.3,286047002.0,N
1580442695.1,286047001.6,N
1580442715.9,286047002.7,N
1580442735.7,286047002.3,N
1580442755.5,286046998.2,N
1580442775.4,286046999.3,N
1580442795.2,286046998.5,N
1580442815.0,286046998.9,N
1580442815.9,286046998.9,N
1580442835.8,286046993.3,Y
1580442855.6,286046995.5,P
1580442875.5,286046999.2,N
1580442895.3,286046998.2,N
1580442915.1,286047000.0,N
1580442935.9,286047004.8,N
1580442955.7,286047003.9,N
1580442975.6,286047003.8,N
1580442995.4,286047002.7,N
1580443015.2,286047000.3,N
1580443035.1,286047000.3,N
1580443036.0,286047000.3,N
1580443055.8,286047002.4,N
1580443075.6,286046999.8,N
1580443095.5,286046999.9,N
1580443115.3,286047001.5,N
1580443135.2,286047001.4,N
1580443155.9,286047000.7,N
1580443175.7,286046999.8,N
1580443195.6,286047002.7,N
